Location: Kalberh�ni
(46.4610°N, 7.2453°E)
Time: 05:41:55
(UTC+00:00)

Cosmos 1802 Rocket - Pass Details

Date: 31 October 2021
Orbit: 955 x 1010 km, 82.9° (Epoch: 05 December)

Event Time Altitude Azimuth Distance (km) Brightness Sun altitude
Rises 18:10:36 0° 178° (S) 3,619 7.0 -19.9°
Reaches altitude 10° 18:13:06 10° 176° (S) 2,678 6.2 -20.4°
Maximum altitude 18:19:09 69° 94° (E) 1,026 3.8 -21.4°
Drops below altitude 10° 18:25:18 10° 13° (NNE) 2,715 6.2 -22.5°
Sets 18:27:50 0° 11° (N) 3,673 6.9 -22.9°
